Погода в Гёрдесе

Турция     38°56′06″N   28°17′22″E
темп.,
°C
ветер,
м/с
пор.,
м/с
влажн.,
%
обл.,
%
осадки,
мм/ч
давл.,
гПа
погр.,
м
9 марта, вт
вт900:00+3ссв1161100 0.0 101822
03:00+2св1161100 0.0 101822
06:00+2всв1262100 0.0 101722
09:00+4всв2254100 0.0 101778
12:00+9в2236100 0.0 1016659
15:00+12юв2233100 0.0 10151121
18:00+11ю1244100 0.0 1014172
21:00+6юв115274 0.0 101622
10 марта, ср
ср1000:00+7в235430 0.0 101642
03:00+5вюв226362 0.0 101524
06:00+5вюв1267100 0.0 101423
09:00+8вюв1263100 0.0 101358
12:00+12ююв2251100 0.0 1012748
15:00+14зюз454896 0.0 10111556
18:00+12зюз345572 0.0 10091063
21:00+8з127038 0.0 101122
11 марта, чт
чт1100:00+7зюз128057 0.0 101222
03:00+6з118442 0.0 101222
06:00+4с118713 0.0 101122
09:00+6ссв228456 0.0 1010130
12:00+3с5695100 4.8 1010277
15:00+4с4993100 16.0 1011571
18:00+3с81292100 0.1 1014712
21:000с5119180 0.1 1018521
12 марта, пт
пт1200:00−1с599326 0.0 1022445
03:00−2с469133 0.0 1024388
06:00−2ссв349329 0.0 1024168
09:00−1ссв238131 0.0 1025200
12:00+3св22570 0.0 1024795
15:00+6ссв11450 0.0 10231015
18:00+6св22600 0.0 1022641
21:00+2ссв22722 0.0 102225
13 марта, сб
сб1300:00+2всв126347 0.0 102222
03:00+1в125551 0.0 102122
06:00+1в125346 0.0 102022
09:00+5вюв224823 0.0 102088
12:00+10ю22370 0.0 1019526
15:00+12юз333749 0.0 1018806
18:00+10зюз224893 0.0 1017214
21:00+6ссз116089 0.0 101922